This demonstration page uses our WeatherBlox Daily Observations layout. Learn more.

Left ArrowRight Arrow

53.62937, 11.41316

Hourly Observations for September 23, 2021

Temp ( °F °C ) Dew Point ( °F °C ) Humidity (%) Winds ( mph kmh ) Pressure ( in mb ) Visibility ( mi km ) Precip ( " mm )
6:20 am 06:20 Mostly Cloudy 55 13 52 11 88 88 S 8 13 29.97 1015 30 48 N/A
6:50 am 06:50 Mostly Cloudy 55 13 52 11 88 88 S 8 13 29.97 1015 30 48 N/A
7:20 am 07:20 Partly Cloudy 55 13 52 11 88 88 S 8 13 29.94 1014 30 48 N/A
7:50 am 07:50 Partly Cloudy 55 13 52 11 88 88 SSW 10 17 29.94 1014 30 48 N/A
8:20 am 08:20 Partly Cloudy 57 14 52 11 82 82 SSW 13 20 29.94 1014 30 48 N/A
8:50 am 08:50 Partly Cloudy 57 14 52 11 82 82 S 13 20 29.91 1013 30 48 N/A
9:20 am 09:20 Mostly Cloudy 57 14 54 12 88 88 SSW 15 24 29.88 1012 30 48 N/A
9:50 am 09:50 Partly Cloudy 59 15 54 12 82 82 SSW 14 22 29.88 1012 30 48 N/A
10:20 am 10:20 Mostly Cloudy 59 15 54 12 82 82 SSW 16 26 29.88 1012 30 48 N/A
10:50 am 10:50 Mostly Cloudy 59 15 54 12 82 82 SW 18 30 29.88 1012 30 48 N/A
11:20 am 11:20 Mostly Cloudy 59 15 54 12 82 82 SSW 18 30 29.85 1011 30 48 N/A
11:50 am 11:50 Mostly Cloudy 59 15 54 12 82 82 SSW 20 31 29.83 1010 30 48 N/A
12:20 pm 12:20 Mostly Cloudy 59 15 54 12 82 82 SSW 16 26 29.83 1010 30 48 N/A
12:50 pm 12:50 Mostly Cloudy 61 16 54 12 77 77 SSW 17 28 29.83 1010 30 48 N/A
1:20 pm 13:20 Mostly Cloudy 61 16 54 12 77 77 SSW 20 31 29.80 1009 30 48 N/A
1:50 pm 13:50 Mostly Cloudy 61 16 54 12 77 77 SSW 20 31 29.80 1009 30 48 N/A
2:20 pm 14:20 Mostly Cloudy with Drizzle 61 16 55 13 83 83 SSW 22 35 29.77 1008 2 4 N/A
2:50 pm 14:50 Mostly Cloudy 61 16 55 13 83 83 SW 21 33 29.77 1008 4 7 N/A
3:20 pm 15:20 Mostly Cloudy with Light Rain 61 16 57 14 88 88 SW 16 26 29.77 1008 30 48 N/A
3:50 pm 15:50 Mostly Cloudy 61 16 57 14 88 88 SW 18 30 29.74 1007 30 48 N/A
4:20 pm 16:20 Mostly Cloudy with Drizzle 61 16 57 14 88 88 SW 21 33 29.74 1007 4 6 N/A
4:50 pm 16:50 Cloudy with Light Rain 61 16 57 14 88 88 SW 21 33 29.71 1006 2 4 N/A
5:20 pm 17:20 Mostly Cloudy with Heavy Showers 59 15 59 15 100 100 SW 16 26 29.74 1007 2 3 N/A
5:50 pm 17:50 Mostly Cloudy 59 15 57 14 94 94 WSW 15 24 29.71 1006 30 48 N/A
6:20 pm 18:20 Mostly Cloudy 59 15 55 13 88 88 SW 13 20 29.74 1007 30 48 N/A
6:50 pm 18:50 Partly Cloudy 59 15 55 13 88 88 WSW 12 19 29.74 1007 30 48 N/A
7:20 pm 19:20 Partly Cloudy 59 15 54 12 82 82 WSW 14 22 29.74 1007 30 48 N/A
7:50 pm 19:50 Mostly Cloudy 59 15 54 12 82 82 WSW 14 22 29.74 1007 30 48 N/A
8:20 pm 20:20 Mostly Cloudy 59 15 52 11 77 77 WSW 12 19 29.77 1008 30 48 N/A
8:50 pm 20:50 Mostly Cloudy 57 14 46 8 67 67 WSW 10 17 29.77 1008 30 48 N/A
9:20 pm 21:20 Mostly Clear 55 13 45 7 67 67 WSW 9 15 29.80 1009 30 48 N/A
9:50 pm 21:50 Mostly Clear 55 13 46 8 72 72 WSW 10 17 29.80 1009 30 48 N/A

Powered by AerisWeather